Brownwood, TX

10:00 AM CDT on June 22, 2017 (GMT -0500)
Brownwood Regional

Weather History for KBWD - January, 2014

Change the Weather History Date:

Friday, January 24, 2014

  Actual Average (KABI) Record (KABI)
Temperature  
Mean Temperature 30 °F -  
Max Temperature 41 °F 57 °F 83 °F (1950)
Min Temperature 19 °F 33 °F 4 °F (1894)
Degree Days  
Heating Degree Days 35    
Moisture  
Dew Point -1 °F    
Average Humidity 30    
Maximum Humidity 64    
Minimum Humidity 13    
Precipitation  
Precipitation 0.00 in - - ()
Sea Level Pressure  
Sea Level Pressure 30.54 in    
Wind  
Wind Speed 9 mph (WNW)    
Max Wind Speed 14 mph    
Max Gust Speed 24 mph    
Visibility 10 miles    
Events      
Averages and records for this station are not official NWS values.
T = Trace of Precipitation, MM = Missing Value Source: NWS Daily Summary

Daily Weather History Graph

Daily Weather History Graph

Search for Another Location

Airport or City:

Trip Planner

Search our weather history database for the weather conditions in past years. The results will help you decide how hot, cold, wet, or windy it might be!

Date:

Astronomy

Jan. 24, 2014 Rise Set
Actual Time 7:33 AM CST 6:02 PM CST
Civil Twilight 7:07 AM CST 6:28 PM CST
Nautical Twilight 6:37 AM CST 6:58 PM CST
Astronomical Twilight 6:08 AM CST 7:27 PM CST
Moon 1:07 AM CST (1/24) 12:18 PM CST (1/24)
Length of Visible Light 11h 21m
Length of Day
10h 29m
Last Quarter, 44% of the Moon is Illuminated
Jan 24
Last Quarter
Jan 30
New
Feb 6
First Quarter
Feb 14
Full
Feb 22
Last Quarter

Hourly Weather History & Observations

Time (CST) Temp. Windchill Dew Point Humidity Pressure Visibility Wind Dir Wind Speed Gust Speed Precip Events Conditions
12:15 AM 24.8 °F 14.6 °F -4.0 °F 28% 30.72 in 10.0 mi North 10.4 mph 18.4 mph N/A   Overcast
12:35 AM 24.8 °F 13.4 °F -4.0 °F 28% 30.72 in 10.0 mi NNW 12.7 mph - N/A   Overcast
12:55 AM 24.8 °F 14.6 °F -4.0 °F 28% 30.72 in 10.0 mi North 10.4 mph - N/A   Overcast
1:15 AM 24.8 °F 14.0 °F -4.0 °F 28% 30.72 in 10.0 mi North 11.5 mph - N/A   Overcast
1:35 AM 24.8 °F 14.6 °F -4.0 °F 28% 30.71 in 10.0 mi North 10.4 mph - N/A   Overcast
1:55 AM 24.8 °F 13.4 °F -4.0 °F 28% 30.72 in 10.0 mi NNW 12.7 mph - N/A   Overcast
2:15 AM 23.0 °F 11.7 °F -4.0 °F 31% 30.71 in 10.0 mi North 11.5 mph - N/A   Overcast
2:35 AM 23.0 °F 11.7 °F -4.0 °F 31% 30.71 in 10.0 mi North 11.5 mph - N/A   Overcast
2:55 AM 23.0 °F 11.7 °F -4.0 °F 31% 30.71 in 10.0 mi North 11.5 mph 17.3 mph N/A   Overcast
3:15 AM 23.0 °F 10.6 °F -4.0 °F 31% 30.71 in 10.0 mi North 13.8 mph 17.3 mph N/A   Overcast
3:35 AM 23.0 °F 13.9 °F -4.0 °F 31% 30.71 in 10.0 mi North 8.1 mph - N/A   Overcast
3:55 AM 23.0 °F 11.7 °F -4.0 °F 31% 30.71 in 10.0 mi North 11.5 mph - N/A   Overcast
4:15 AM 23.0 °F 11.7 °F -4.0 °F 31% 30.70 in 10.0 mi North 11.5 mph - N/A   Overcast
4:35 AM 23.0 °F 13.1 °F -4.0 °F 31% 30.70 in 10.0 mi North 9.2 mph - N/A   Overcast
4:55 AM 21.2 °F 9.5 °F -4.0 °F 33% 30.70 in 10.0 mi North 11.5 mph - N/A   Overcast
5:15 AM 21.2 °F 10.1 °F -4.0 °F 33% 30.70 in 10.0 mi North 10.4 mph - N/A   Overcast
5:35 AM 21.2 °F 9.5 °F -5.8 °F 30% 30.70 in 10.0 mi North 11.5 mph - N/A   Overcast
5:55 AM 21.2 °F 10.9 °F -4.0 °F 33% 30.70 in 10.0 mi North 9.2 mph - N/A   Overcast
6:15 AM 21.2 °F 10.1 °F -4.0 °F 33% 30.69 in 10.0 mi North 10.4 mph - N/A   Overcast
6:35 AM 21.2 °F 10.9 °F -4.0 °F 33% 30.70 in 10.0 mi North 9.2 mph - N/A   Overcast
6:55 AM 21.2 °F 10.9 °F -4.0 °F 33% 30.69 in 10.0 mi North 9.2 mph - N/A   Overcast
7:15 AM 21.2 °F 11.7 °F -4.0 °F 33% 30.70 in 10.0 mi NW 8.1 mph - N/A   Overcast
7:35 AM 21.2 °F 13.6 °F -4.0 °F 33% 30.70 in 10.0 mi NNW 5.8 mph - N/A   Overcast
7:55 AM 21.2 °F 11.7 °F -4.0 °F 33% 30.69 in 10.0 mi NNW 8.1 mph - N/A   Overcast
8:15 AM 21.2 °F 11.7 °F -4.0 °F 33% 30.68 in 10.0 mi NNW 8.1 mph - N/A   Overcast
8:35 AM 19.4 °F 9.5 °F -4.0 °F 36% 30.68 in 10.0 mi NNW 8.1 mph - N/A   Overcast
8:55 AM 21.2 °F 13.6 °F -4.0 °F 33% 30.68 in 10.0 mi NW 5.8 mph - N/A   Mostly Cloudy
9:15 AM 23.0 °F 14.7 °F -4.0 °F 31% 30.68 in 10.0 mi WNW 6.9 mph - N/A   Clear
9:35 AM 23.0 °F 14.7 °F -4.0 °F 31% 30.67 in 10.0 mi NW 6.9 mph - N/A   Clear
9:55 AM 23.0 °F 17.0 °F -5.8 °F 28% 30.67 in 10.0 mi West 4.6 mph - N/A   Clear
10:15 AM 24.8 °F 19.1 °F -4.0 °F 28% 30.67 in 10.0 mi WSW 4.6 mph - N/A   Clear
10:35 AM 24.8 °F 19.1 °F -4.0 °F 28% 30.66 in 10.0 mi NNW 4.6 mph - N/A   Clear
10:55 AM 26.6 °F 22.6 °F -4.0 °F 26% 30.65 in 10.0 mi NW 3.5 mph - N/A   Clear
11:15 AM 28.4 °F - -4.0 °F 25% 30.64 in 10.0 mi Calm Calm - N/A   Clear
11:35 AM 30.2 °F 24.3 °F -4.0 °F 23% 30.63 in 10.0 mi WNW 5.8 mph - N/A   Clear
11:55 AM 32.0 °F 24.8 °F -4.0 °F 21% 30.60 in 10.0 mi West 8.1 mph - N/A   Clear
12:15 PM 32.0 °F 27.5 °F -4.0 °F 21% 30.58 in 10.0 mi West 4.6 mph - N/A   Clear
12:35 PM 35.6 °F 32.8 °F -4.0 °F 18% 30.57 in 10.0 mi WSW 3.5 mph - N/A   Clear
12:55 PM 35.6 °F 29.2 °F -4.0 °F 18% 30.54 in 10.0 mi SW 8.1 mph - N/A   Clear
1:15 PM 37.4 °F 30.8 °F -4.0 °F 17% 30.53 in 10.0 mi West 9.2 mph - N/A   Clear
1:35 PM 37.4 °F 32.8 °F -5.8 °F 16% 30.51 in 10.0 mi WSW 5.8 mph - N/A   Clear
1:55 PM 39.2 °F 33.0 °F -2.2 °F 17% 30.49 in 10.0 mi WSW 9.2 mph - N/A   Partly Cloudy
2:15 PM 39.2 °F 33.0 °F -2.2 °F 17% 30.47 in 10.0 mi WSW 9.2 mph 16.1 mph N/A   Mostly Cloudy
2:35 PM 39.2 °F 31.2 °F -4.0 °F 16% 30.46 in 10.0 mi SW 13.8 mph - N/A   Overcast
2:55 PM 41.0 °F 34.7 °F -5.8 °F 14% 30.45 in 10.0 mi SSW 10.4 mph - N/A   Scattered Clouds
3:15 PM 41.0 °F 35.8 °F -4.0 °F 15% 30.44 in 10.0 mi SW 8.1 mph 16.1 mph N/A   Clear
3:35 PM 41.0 °F 33.5 °F -7.6 °F 13% 30.42 in 10.0 mi SW 13.8 mph 18.4 mph N/A   Clear
3:55 PM 41.0 °F 34.3 °F -7.6 °F 13% 30.41 in 10.0 mi SW 11.5 mph 24.2 mph N/A   Clear
4:15 PM 41.0 °F 33.5 °F -2.2 °F 16% 30.39 in 10.0 mi SW 13.8 mph - N/A   Clear
4:35 PM 41.0 °F 34.3 °F -2.2 °F 16% 30.38 in 10.0 mi SW 11.5 mph 18.4 mph N/A   Clear
4:55 PM 41.0 °F 33.9 °F -2.2 °F 16% 30.38 in 10.0 mi SW 12.7 mph - N/A   Clear
5:15 PM 41.0 °F 34.7 °F -0.4 °F 18% 30.37 in 10.0 mi SW 10.4 mph - N/A   Clear
5:35 PM 41.0 °F 34.7 °F -0.4 °F 18% 30.36 in 10.0 mi SSW 10.4 mph - N/A   Clear
5:55 PM 39.2 °F 34.2 °F 1.4 °F 21% 30.36 in 10.0 mi SW 6.9 mph - N/A   Clear
6:15 PM 39.2 °F 35.9 °F 1.4 °F 21% 30.35 in 10.0 mi SSW 4.6 mph - N/A   Clear
6:35 PM 37.4 °F 33.8 °F 1.4 °F 22% 30.36 in 10.0 mi SSW 4.6 mph - N/A   Scattered Clouds
6:55 PM 33.8 °F - 3.2 °F 28% 30.36 in 10.0 mi North - - N/A   Mostly Cloudy
7:15 PM 32.0 °F - 5.0 °F 32% 30.35 in 10.0 mi North - - N/A   Mostly Cloudy
7:35 PM 32.0 °F 26.4 °F 6.8 °F 35% 30.35 in 10.0 mi South 5.8 mph - N/A   Mostly Cloudy
7:55 PM 32.0 °F 25.6 °F 6.8 °F 35% 30.34 in 10.0 mi South 6.9 mph - N/A   Overcast
8:15 PM 32.0 °F 25.6 °F 6.8 °F 35% 30.33 in 10.0 mi South 6.9 mph - N/A   Mostly Cloudy
8:35 PM 32.0 °F 25.6 °F 6.8 °F 35% 30.33 in 10.0 mi South 6.9 mph - N/A   Mostly Cloudy
8:55 PM 32.0 °F - 8.6 °F 38% 30.32 in 10.0 mi North - - N/A   Scattered Clouds
9:15 PM 32.0 °F - 8.6 °F 38% 30.32 in 10.0 mi North - - N/A   Partly Cloudy
9:35 PM 30.2 °F - 10.4 °F 44% 30.32 in 10.0 mi North - - N/A   Partly Cloudy
9:55 PM 30.2 °F - 10.4 °F 44% 30.31 in 10.0 mi North - - N/A   Scattered Clouds
10:15 PM 28.4 °F - 10.4 °F 47% 30.31 in 10.0 mi Calm Calm - N/A   Scattered Clouds
10:35 PM 26.6 °F - 10.4 °F 51% 30.31 in 10.0 mi Calm Calm - N/A   Partly Cloudy
10:55 PM 28.4 °F - 12.2 °F 51% 30.31 in 10.0 mi Calm Calm - N/A   Scattered Clouds
11:15 PM 28.4 °F 24.6 °F 14.0 °F 55% 30.31 in 10.0 mi East 3.5 mph - N/A   Partly Cloudy
11:35 PM 24.8 °F - 14.0 °F 64% 30.30 in 10.0 mi Calm Calm - N/A   Partly Cloudy
11:55 PM 24.8 °F 20.5 °F 14.0 °F 64% 30.29 in 10.0 mi SSE 3.5 mph - N/A   Partly Cloudy